Wind_Speed
28 33 36 38 30 32 37 35 33 27 25 24 18 16 18 20 19 19 19 23 21 22 24 25 25 24 22 19 24 29 29 29
30 29 32 33 27 33 35 36 35 27 31 24 21 19 19 18 20 20 21 21 20 21 23 25 24 28 25 19 30 31 31 31
23 21 23 26 24 32 34 35 31 31 31 22 20 16 13 16 17 19 20 21 21 21 22 25 25 30 27 23 27 34 26 30
27 25 23 27 23 34 35 34 30 32 24 21 21 19 17 15 15 14 17 18 22 21 24 23 27 30 31 28 38 36 34 29
29 26 29 29 30 29 33 32 31 31 26 24 24 20 22 19 16 15 16 17 17 17 21 21 25 25 30 32 40 36 33 31
22 26 27 30 32 31 33 34 31 32 28 26 24 18 15 12 11 15 16 17 18 17 16 21 25 26 27 31 42 42 39 33
19 24 26 29 33 33 35 35 30 28 30 25 18 12 16 14 17 19 20 20 18 17 16 20 25 32 30 27 41 40 39 34
25 19 30 29 38 37 36 33 30 29 27 25 19 19 19 14 17 18 18 17 18 15 14 13 16 35 35 29 43 40 39 34
27 31 21 16 37 36 36 32 30 30 26 26 20 19 17 17 16 14 16 13 15 12 10 10 22 24 25 30 32 44 38 31
27 28 21 7 32 34 32 31 31 28 28 24 21 19 14 15 14 13 12 13 13 10 8 12 16 19 27 30 28 40 36 31
22 25 28 7 20 25 26 28 33 27 24 22 19 21 17 17 16 13 11 9 10 12 13 15 16 19 24 31 35 35 33 29
18 20 21 17 5 17 23 19 28 30 21 23 22 18 16 14 14 14 14 10 9 9 12 14 17 17 20 24 26 29 31 32
15 15 17 13 12 8 11 15 23 31 16 21 19 18 17 14 13 12 13 12 10 9 9 11 16 18 22 26 27 29 27 28
14 14 16 13 11 8 14 16 21 25 18 16 17 15 16 12 12 12 13 10 9 8 10 7 10 14 15 15 20 29 26 29
14 14 15 13 11 12 11 17 21 25 23 24 22 20 18 17 17 14 13 10 9 9 12 12 15 13 15 14 12 14 20 21
17 15 14 13 12 12 15 18 24 21 23 22 22 21 20 19 18 17 16 15 13 13 14 14 15 15 14 13 13 14 13 10
16 15 12 14 13 12 12 14 17 22 22 21 20 19 17 16 17 17 16 15 14 14 14 14 15 16 14 14 14 16 15 17
19 16 14 13 13 11 12 14 16 20 23 21 20 20 20 21 21 19 19 18 15 13 13 14 13 13 14 14 15 15 17 18
16 15 17 15 13 12 11 12 15 20 22 21 19 19 18 17 18 19 18 18 19 17 15 14 12 12 15 16 17 18 20 21
Wind_Direction
234 232 233 228 220 203 194 205 217 204 198 215 222 224 223 227 224 217 220 221 216 221 219 228 217 204 207 216 224 185 174 178
238 233 226 222 210 183 190 205 218 195 207 208 217 224 221 220 214 219 223 223 220 226 224 220 219 215 224 214 190 174 184 176
260 233 221 217 190 188 193 208 213 194 210 201 214 221 224 226 220 218 224 226 226 218 221 226 229 220 210 197 189 178 183 180
240 238 234 191 186 186 192 207 199 198 199 195 201 197 201 196 213 216 219 222 219 223 219 225 218 233 215 208 195 180 180 187
228 232 231 192 189 188 189 200 196 198 190 202 209 209 198 215 214 213 212 209 209 219 218 233 220 229 226 210 195 181 183 186
234 230 225 198 189 192 191 201 197 199 193 206 205 208 202 201 197 214 212 208 209 216 216 217 229 220 219 214 200 189 185 187
240 239 241 199 187 186 187 199 195 198 196 209 205 187 192 184 196 205 201 212 209 209 219 235 238 230 221 210 195 187 190 191
355 330 227 223 183 183 186 192 193 197 199 194 197 189 193 186 203 206 207 208 205 213 234 229 238 205 207 209 193 192 196 197
345 339 318 235 173 177 182 186 191 194 194 194 191 202 200 188 202 217 213 220 221 218 219 198 218 206 210 217 215 197 197 197
345 341 350 189 173 176 184 185 192 190 190 192 187 192 185 180 191 198 204 209 207 205 211 182 190 220 224 205 203 196 198 204
352 9 23 15 153 165 171 190 197 184 190 191 186 184 179 189 195 190 187 191 189 200 205 208 207 199 201 200 194 194 202 209
358 13 43 63 113 180 192 183 178 183 180 187 180 179 178 182 191 195 206 205 207 207 209 210 205 202 203 199 199 205 211 221
13 21 45 73 90 139 185 190 182 183 172 191 185 171 174 180 191 195 203 194 213 204 194 202 214 209 208 212 215 219 222 221
21 31 43 58 78 127 169 170 201 189 183 180 168 176 179 176 177 176 186 188 194 187 188 198 205 202 205 206 224 223 227 231
34 32 39 51 70 99 151 176 174 178 180 173 172 168 170 179 174 181 178 173 162 167 177 177 170 182 200 211 217 231 243 238
42 31 31 41 66 81 114 131 161 171 180 175 171 169 169 171 173 176 179 171 165 163 181 188 191 193 201 207 209 220 234 244
48 41 36 40 48 69 96 114 141 152 171 176 181 190 189 191 185 170 171 176 181 185 177 187 194 200 200 199 198 208 216 220
58 48 49 49 48 61 77 108 122 129 137 145 158 166 172 177 183 188 187 187 186 184 182 188 199 204 209 209 211 222 230 235
70 63 56 54 54 64 81 95 108 120 123 125 131 143 143 146 160 168 159 168 175 178 184 189 197 210 217 219 222 228 235 241
Height
1400 1402 1404 1407 1411 1414 1415 1421 1425 1434 1439 1439 1442 1444 1448 1450 1454 1458 1462 1465 1466 1470 1473 1475 1479 1483 1488 1491 1490 1496 1503 1510
1394 1395 1397 1401 1405 1407 1410 1416 1422 1430 1431 1435 1437 1439 1443 1447 1450 1453 1457 1460 1463 1466 1469 1472 1476 1480 1484 1488 1490 1495 1503 1509
1387 1389 1391 1395 1399 1403 1407 1413 1419 1426 1427 1432 1434 1437 1440 1444 1445 1448 1452 1456 1459 1463 1465 1468 1473 1476 1480 1485 1489 1494 1499 1507
1385 1386 1387 1390 1395 1400 1405 1410 1417 1422 1425 1428 1431 1436 1439 1442 1442 1445 1448 1451 1455 1459 1461 1464 1468 1471 1474 1480 1485 1490 1497 1504
1378 1381 1384 1385 1391 1398 1403 1409 1415 1418 1422 1424 1426 1429 1434 1436 1439 1442 1445 1449 1452 1454 1457 1459 1463 1467 1470 1475 1481 1488 1494 1500
1372 1377 1379 1381 1387 1393 1400 1405 1410 1414 1418 1420 1423 1426 1431 1433 1438 1441 1443 1446 1448 1450 1453 1456 1459 1461 1466 1471 1477 1482 1490 1496
1371 1374 1375 1378 1381 1388 1395 1400 1405 1410 1414 1417 1421 1424 1428 1431 1434 1438 1440 1443 1445 1447 1450 1451 1452 1455 1460 1467 1473 1480 1487 1494
1367 1370 1372 1372 1375 1381 1389 1396 1403 1407 1411 1417 1419 1423 1426 1429 1432 1434 1438 1440 1442 1444 1446 1446 1447 1450 1458 1465 1469 1477 1484 1491
1372 1368 1363 1363 1369 1376 1384 1392 1401 1405 1410 1415 1417 1419 1423 1427 1430 1432 1435 1437 1439 1441 1442 1443 1446 1450 1456 1461 1466 1474 1481 1487
1377 1370 1363 1363 1367 1374 1381 1389 1397 1403 1409 1413 1415 1418 1422 1425 1428 1430 1433 1435 1437 1440 1442 1444 1447 1450 1452 1458 1464 1471 1479 1485
1382 1376 1368 1367 1369 1374 1382 1388 1393 1402 1407 1411 1414 1417 1420 1424 1427 1430 1432 1434 1436 1438 1441 1444 1448 1450 1453 1455 1462 1470 1476 1482
1385 1381 1377 1374 1375 1378 1385 1387 1394 1401 1406 1408 1411 1415 1419 1422 1426 1429 1432 1433 1435 1437 1440 1443 1446 1450 1453 1458 1462 1469 1473 1479
1389 1386 1383 1380 1381 1384 1389 1390 1396 1400 1404 1404 1410 1414 1416 1421 1425 1429 1431 1432 1434 1436 1438 1441 1444 1448 1451 1456 1460 1465 1469 1472
1392 1389 1386 1386 1386 1387 1389 1391 1396 1400 1402 1405 1410 1414 1416 1420 1424 1427 1430 1432 1434 1436 1438 1440 1442 1446 1449 1453 1456 1461 1464 1469
1395 1394 1393 1391 1390 1390 1391 1393 1395 1397 1399 1402 1407 1411 1415 1417 1421 1425 1428 1430 1433 1436 1437 1438 1440 1444 1447 1451 1455 1458 1461 1464
1399 1399 1398 1396 1393 1393 1393 1394 1394 1398 1400 1403 1408 1411 1414 1417 1420 1422 1425 1428 1431 1432 1435 1438 1441 1443 1447 1450 1453 1456 1458 1462
1404 1404 1402 1400 1400 1397 1396 1396 1397 1398 1400 1404 1408 1411 1414 1417 1419 1422 1424 1427 1430 1432 1434 1437 1439 1442 1445 1449 1452 1454 1457 1459
1407 1409 1407 1405 1404 1403 1401 1400 1400 1398 1398 1403 1407 1409 1413 1416 1418 1421 1423 1425 1429 1431 1432 1435 1437 1440 1443 1446 1449 1451 1454 1455
1413 1414 1412 1410 1410 1409 1408 1405 1403 1401 1401 1403 1406 1408 1411 1414 1416 1418 1420 1422 1423 1428 1431 1432 1434 1436 1440 1443 1445 1447 1449 1451